Voltar ao catálogo

LYNK TOWER 3

AtivoComunicaçõesSSO
NORAD 55046·PAYLOAD·🇺🇸 United States

Lançado Jan 3, 2023 de Cape Canaveral Space Force Station

Loading…

Próximas Passagens (próximas 24 horas)

TLE

AtualizadoSource: Space-Track

Época: Sep 14, 2026, 04:51 UTC

1 55046U 23001AP  26257.20243208  .00008613  00000-0  23214-3 0  9992
2 55046  97.3103 317.0617 0008343 148.6400 211.5345 15.38025379205585

Acompanhe LYNK TOWER 3 em tempo real com AllMySat

Download on the App Store